sat.trackr.live / text

‹ back to catalog

KOREASAT 7

NORAD 42691 · 2017-023A

PAYLOAD ACTIVE UNKNOWN

§ Identity

Operator
Country
SKOR
Launch date
2017-05-04
Launch site
FRGUI
Launch vehicle
Mass (kg)
RCS (m²)

Purposes: comms

External: N2YO · Heavens-Above · Gunter

§ Orbital elements

Epoch: 2026-09-19T21:15:38.616768Z

Period
1,436.09 min
Inclination
0.0310°
Eccentricity
0.0000956
Mean motion
1.00272381 rev/d
Perigee alt
35,782.4 km
Apogee alt
35,790.5 km
Semi-major
42,164.6 km
B*
0.0000e+0
RAAN
49.9391°
Arg perigee
143.0423°
Mean anomaly
240.6290°
Rev number
3,431

§ Raw data

KOREASAT 71 42691U 17023A   26262.88586362 -.00000366  00000+0  00000+0 0  99932 42691   0.0310  49.9391 0000956 143.0423 240.6290  1.00272381 34318

JSON: /api/v1/satellites/42691 · /tle

For live sub-satellite position, see the globe view (requires WebGL).

§ Visibility from observer

Set your observer location to see the next 7 days of passes ≥ 10°. The values pass through the URL so the page stays shareable.

No JS? Fill the form by hand. The geolocation button needs JavaScript.